Language: 


Des rapports , des résumés tant et plus, au choix de chacun....


Données statistiques de la station
Quotidien Rapport Juin 30, 2017 Unités:  Anglais    Métrique   les deux
« Précédent Jour
Suivant Jour »
Quotidien Hebdomadaire Mensuel Annuel Actuel
  Haut: Bas: Moyen:
Température: 74.3 °F 54.9 °F 63.9 °F
Pt de rosée: 60.8 °F 53.6 °F 56.3 °F
Humidité: 97 % 50 % 77 %
Vitesse du vent: 8.9 mph 0 mph 2 mph
Rafales: 11.2 mph - -
Vent:- - West
Pression: 29.8 in 29.5 in -
Précipitation: 0 in    
Historical Graphs
 
 
Données statistiques pour Juin 30, 2017
Heure Température Point de rosée Pression Vent Vitesse du vent Refales Humidité Pluie (taux horaire)
00:01 60.4 °F 55.4 °F 29.5 in Calm     84 % 0 in
00:06 60.4 °F 55.4 °F 29.5 in Calm   0.9 mph 84 % 0 in
00:11 60.4 °F 55.4 °F 29.5 in Calm   1.3 mph 85 % 0 in
00:16 60.4 °F 55.4 °F 29.5 in Calm   1.3 mph 85 % 0 in
00:21 60.4 °F 55.4 °F 29.5 in Calm     86 % 0 in
00:26 60.6 °F 57.2 °F 29.5 in Calm   2 mph 87 % 0 in
00:31 60.6 °F 57.2 °F 29.5 in Calm   2 mph 87 % 0 in
00:36 60.6 °F 57.2 °F 29.5 in Calm   2 mph 87 % 0 in
00:42 60.4 °F 57.2 °F 29.5 in Calm   2 mph 87 % 0 in
00:47 60.3 °F 57.2 °F 29.5 in Calm   3.8 mph 87 % 0 in
00:52 59.9 °F 57.2 °F 29.5 in Calm   3.8 mph 88 % 0 in
00:57 59.5 °F 55.4 °F 29.5 in Calm   2 mph 87 % 0 in
01:02 59.2 °F 55.4 °F 29.5 in Calm     88 % 0 in
01:07 58.8 °F 55.4 °F 29.5 in Calm     88 % 0 in
01:12 58.5 °F 55.4 °F 29.5 in Calm     88 % 0 in
01:17 58.1 °F 55.4 °F 29.5 in Calm     89 % 0 in
01:22 57.7 °F 55.4 °F 29.5 in Calm     89 % 0 in
01:27 57.4 °F 55.4 °F 29.5 in Calm     89 % 0 in
01:32 57 °F 55.4 °F 29.5 in Calm   0.9 mph 90 % 0 in
01:37 56.8 °F 53.6 °F 29.5 in Calm   0.9 mph 90 % 0 in
01:42 56.5 °F 53.6 °F 29.5 in Calm   2 mph 90 % 0 in
01:47 56.5 °F 55.4 °F 29.5 in Calm   2 mph 91 % 0 in
01:52 56.3 °F 55.4 °F 29.5 in SE 1.1 mph 1.1 mph 91 % 0 in
01:57 56.3 °F 55.4 °F 29.5 in Calm   2 mph 92 % 0 in
02:02 56.3 °F 55.4 °F 29.5 in Calm   2 mph 92 % 0 in
02:07 56.3 °F 55.4 °F 29.5 in Calm   0.9 mph 92 % 0 in
02:12 56.3 °F 55.4 °F 29.5 in Calm   0.9 mph 93 % 0 in
02:17 56.3 °F 55.4 °F 29.5 in Calm     93 % 0 in
02:22 56.3 °F 55.4 °F 29.5 in Calm   2.5 mph 93 % 0 in
02:27 56.3 °F 55.4 °F 29.5 in SSW 0.9 mph 3.1 mph 93 % 0 in
02:32 56.3 °F 55.4 °F 29.5 in Calm   3.1 mph 94 % 0 in
02:38 56.3 °F 55.4 °F 29.5 in Calm     94 % 0 in
02:42 56.1 °F 55.4 °F 29.5 in Calm     94 % 0 in
02:48 56.1 °F 55.4 °F 29.5 in Calm     94 % 0 in
02:53 55.9 °F 55.4 °F 29.5 in Calm     94 % 0 in
02:58 55.9 °F 55.4 °F 29.5 in Calm     94 % 0 in
03:03 55.9 °F 55.4 °F 29.5 in Calm   1.6 mph 94 % 0 in
03:08 55.6 °F 53.6 °F 29.5 in Calm   1.6 mph 94 % 0 in
03:13 55.2 °F 53.6 °F 29.5 in West 1.1 mph 1.1 mph 94 % 0 in
03:18 54.9 °F 53.6 °F 29.5 in Calm   2 mph 94 % 0 in
03:23 54.9 °F 53.6 °F 29.5 in Calm   2 mph 94 % 0 in
03:28 55 °F 53.6 °F 29.5 in South 0.9 mph 2.2 mph 94 % 0 in
03:33 55.2 °F 55.4 °F 29.5 in Calm   2.2 mph 95 % 0 in
03:38 55.2 °F 55.4 °F 29.5 in Calm   3.4 mph 95 % 0 in
03:43 55.4 °F 55.4 °F 29.5 in Calm   3.4 mph 95 % 0 in
03:48 55.6 °F 55.4 °F 29.5 in Calm   1.1 mph 95 % 0 in
03:53 55.8 °F 55.4 °F 29.5 in SSE 1.3 mph 3.1 mph 95 % 0 in
03:58 55.9 °F 55.4 °F 29.5 in Calm   3.1 mph 95 % 0 in
04:03 56.1 °F 55.4 °F 29.5 in Calm   3.1 mph 95 % 0 in
04:08 56.5 °F 55.4 °F 29.5 in South 0.9 mph 3.1 mph 96 % 0 in
04:13 56.5 °F 55.4 °F 29.5 in South 1.6 mph 1.6 mph 96 % 0 in
04:18 56.7 °F 55.4 °F 29.5 in Calm   2.2 mph 96 % 0 in
04:23 56.8 °F 55.4 °F 29.5 in Calm   2.7 mph 96 % 0 in
04:28 56.8 °F 55.4 °F 29.5 in Calm   2.7 mph 96 % 0 in
04:33 57 °F 57.2 °F 29.6 in Calm   1.3 mph 96 % 0 in
04:38 57 °F 57.2 °F 29.6 in Calm   1.6 mph 96 % 0 in
04:43 57.2 °F 57.2 °F 29.6 in Calm   2.7 mph 96 % 0 in
04:48 57.2 °F 57.2 °F 29.6 in Calm   2.7 mph 96 % 0 in
04:53 57.2 °F 57.2 °F 29.6 in Calm     96 % 0 in
04:58 57.2 °F 55.4 °F 29.6 in Calm     95 % 0 in
05:00 57.2 °F 55.4 °F 29.6 in Calm     95 % 0 in
05:05 57.2 °F 55.4 °F 29.6 in Calm     95 % 0 in
05:11 57.2 °F 55.4 °F 29.6 in Calm     95 % 0 in
05:16 57.2 °F 55.4 °F 29.6 in Calm     95 % 0 in
05:21 57.2 °F 55.4 °F 29.6 in Calm     95 % 0 in
05:26 57.2 °F 55.4 °F 29.6 in Calm   1.1 mph 95 % 0 in
05:31 57 °F 57.2 °F 29.6 in Calm   1.1 mph 96 % 0 in
05:36 56.8 °F 55.4 °F 29.6 in Calm   1.1 mph 96 % 0 in
05:41 56.7 °F 55.4 °F 29.6 in Calm   2 mph 95 % 0 in
05:46 56.5 °F 55.4 °F 29.6 in Calm   2.9 mph 95 % 0 in
05:51 56.3 °F 55.4 °F 29.6 in Calm   2.9 mph 95 % 0 in
05:56 56.3 °F 55.4 °F 29.6 in Calm   2 mph 95 % 0 in
06:01 56.1 °F 55.4 °F 29.6 in Calm   0.9 mph 95 % 0 in
06:06 55.9 °F 55.4 °F 29.6 in Calm     95 % 0 in
06:11 55.9 °F 55.4 °F 29.6 in Calm   2.7 mph 95 % 0 in
06:16 55.8 °F 55.4 °F 29.6 in Calm   2.7 mph 95 % 0 in
06:21 55.8 °F 55.4 °F 29.6 in Calm   3.1 mph 95 % 0 in
06:26 55.8 °F 55.4 °F 29.6 in Calm   3.1 mph 96 % 0 in
06:31 55.9 °F 55.4 °F 29.6 in Calm     96 % 0 in
06:36 55.9 °F 55.4 °F 29.6 in Calm     96 % 0 in
06:41 55.9 °F 55.4 °F 29.6 in Calm     96 % 0 in
06:46 55.8 °F 55.4 °F 29.6 in Calm     96 % 0 in
06:51 56.1 °F 55.4 °F 29.6 in Calm   3.1 mph 96 % 0 in
06:56 56.7 °F 55.4 °F 29.6 in Calm   3.1 mph 97 % 0 in
07:01 57.4 °F 57.2 °F 29.5 in Calm   2.5 mph 97 % 0 in
07:06 58.1 °F 57.2 °F 29.5 in SSW 2 mph 3.6 mph 97 % 0 in
07:11 58.8 °F 59 °F 29.5 in Calm   3.6 mph 97 % 0 in
07:16 59.4 °F 59 °F 29.6 in Calm   2.5 mph 97 % 0 in
07:21 59.9 °F 59 °F 29.6 in South 1.6 mph 4.9 mph 96 % 0 in
07:26 60.3 °F 59 °F 29.6 in South 2 mph 5.4 mph 96 % 0 in
07:31 60.4 °F 59 °F 29.6 in SSW 2.2 mph 6.9 mph 95 % 0 in
07:36 61 °F 59 °F 29.6 in Calm   6.9 mph 94 % 0 in
07:41 60.6 °F 59 °F 29.6 in Calm   4.3 mph 94 % 0 in
07:46 60.8 °F 59 °F 29.6 in Calm   4.3 mph 93 % 0 in
07:51 60.6 °F 59 °F 29.6 in WSW 2.9 mph 4.3 mph 93 % 0 in
07:56 60.8 °F 59 °F 29.6 in South 5.4 mph 5.4 mph 93 % 0 in
07:59 60.8 °F 59 °F 29.6 in SSW 3.6 mph 6.5 mph 93 % 0 in
08:04 61.3 °F 59 °F 29.6 in SW 6 mph 6.5 mph 93 % 0 in
08:09 61.9 °F 60.8 °F 29.6 in SW 1.6 mph 6.3 mph 93 % 0 in
08:14 62.2 °F 60.8 °F 29.6 in Calm   4.3 mph 93 % 0 in
08:19 62.6 °F 60.8 °F 29.6 in SW 4.9 mph 5.8 mph 92 % 0 in
08:24 62.2 °F 59 °F 29.6 in SSW 4.9 mph 7.8 mph 91 % 0 in
08:29 61.9 °F 59 °F 29.6 in SW 7.6 mph 7.8 mph 90 % 0 in
08:34 61.7 °F 59 °F 29.6 in SW 4.5 mph 8.5 mph 89 % 0 in
08:39 61.9 °F 59 °F 29.6 in WSW 5.4 mph 8.5 mph 90 % 0 in
08:44 62.1 °F 59 °F 29.6 in SSW 2.9 mph 8.5 mph 89 % 0 in
08:49 62.1 °F 59 °F 29.6 in SW 3.1 mph 8.1 mph 89 % 0 in
08:54 62.2 °F 59 °F 29.6 in Calm   7.2 mph 89 % 0 in
08:59 62.2 °F 59 °F 29.6 in SSW 4 mph 6.5 mph 88 % 0 in
09:04 62.2 °F 59 °F 29.6 in SW 3.6 mph 7.8 mph 88 % 0 in
09:09 62.2 °F 59 °F 29.6 in SW 8.9 mph 8.9 mph 88 % 0 in
09:14 62.2 °F 59 °F 29.6 in Calm   9.8 mph 88 % 0 in
09:20 62.6 °F 59 °F 29.6 in SSW 1.6 mph 9.8 mph 88 % 0 in
09:25 62.6 °F 59 °F 29.6 in SW 6.3 mph 8.7 mph 87 % 0 in
09:28 62.6 °F 59 °F 29.6 in West 4.7 mph 8.7 mph 86 % 0 in
09:33 63.1 °F 59 °F 29.6 in SW 5.4 mph 9.6 mph 86 % 0 in
09:38 63.3 °F 59 °F 29.6 in SSW 8.5 mph 11 mph 85 % 0 in
09:43 63.5 °F 59 °F 29.6 in WSW 7.4 mph 11 mph 84 % 0 in
09:48 63.9 °F 59 °F 29.6 in SW 8.7 mph 10.3 mph 83 % 0 in
09:53 63.9 °F 59 °F 29.6 in SSW 6 mph 8.7 mph 83 % 0 in
09:58 64 °F 59 °F 29.6 in SW 4.9 mph 11.2 mph 82 % 0 in
10:03 64.4 °F 59 °F 29.6 in WSW 5.8 mph 11.2 mph 81 % 0 in
10:08 64.4 °F 59 °F 29.6 in SW 7.4 mph 10.3 mph 80 % 0 in
10:13 64.4 °F 59 °F 29.6 in South 6 mph 10.3 mph 80 % 0 in
10:18 64.4 °F 57.2 °F 29.6 in West 6.3 mph 8.5 mph 79 % 0 in
10:23 64.9 °F 59 °F 29.6 in Calm   8.5 mph 80 % 0 in
10:28 65.3 °F 59 °F 29.6 in SW 5.4 mph 7.8 mph 80 % 0 in
10:33 65.5 °F 59 °F 29.6 in SSW 3.4 mph 7.6 mph 79 % 0 in
10:38 65.5 °F 59 °F 29.6 in WSW 5.6 mph 8.5 mph 78 % 0 in
10:43 65.5 °F 59 °F 29.6 in SW 4.3 mph 8.5 mph 78 % 0 in
10:48 65.5 °F 59 °F 29.6 in WSW 4.9 mph 7.6 mph 78 % 0 in
10:53 66 °F 59 °F 29.6 in South 5.6 mph 7.6 mph 78 % 0 in
10:58 66.4 °F 59 °F 29.6 in SW 2.7 mph 7.6 mph 77 % 0 in
11:03 66.6 °F 59 °F 29.6 in WSW 3.1 mph 7.6 mph 76 % 0 in
11:08 66.7 °F 59 °F 29.6 in WSW 4.3 mph 7.6 mph 75 % 0 in
11:13 67.1 °F 59 °F 29.6 in WSW 5.4 mph 7.8 mph 74 % 0 in
11:18 67.1 °F 59 °F 29.6 in West 7.6 mph 8.5 mph 73 % 0 in
11:23 67.6 °F 57.2 °F 29.6 in WSW 3.6 mph 8.7 mph 71 % 0 in
11:28 68 °F 57.2 °F 29.6 in Calm   8.7 mph 70 % 0 in
11:33 68.7 °F 59 °F 29.6 in SSW 3.1 mph 7.6 mph 71 % 0 in
11:38 69.4 °F 59 °F 29.6 in West 4 mph 7.6 mph 70 % 0 in
11:44 70.5 °F 59 °F 29.6 in West 2.5 mph 8.1 mph 69 % 0 in
11:49 70 °F 57.2 °F 29.6 in West 1.6 mph 8.1 mph 66 % 0 in
11:50 70 °F 57.2 °F 29.6 in Calm   8.1 mph 66 % 0 in
11:55 69.4 °F 57.2 °F 29.6 in West 7.8 mph 7.8 mph 67 % 0 in
12:00 71.6 °F 59 °F 29.6 in Calm   9.2 mph 66 % 0 in
12:05 71.8 °F 59 °F 29.6 in SW 4 mph 9.2 mph 64 % 0 in
12:10 70.7 °F 59 °F 29.6 in SSW 7.4 mph 8.5 mph 65 % 0 in
12:15 70.5 °F 57.2 °F 29.6 in SW 4.9 mph 7.4 mph 63 % 0 in
12:20 70.5 °F 57.2 °F 29.6 in WSW 3.1 mph 7.4 mph 62 % 0 in
12:25 70 °F 55.4 °F 29.6 in West 3.4 mph 7.8 mph 61 % 0 in
12:30 70.7 °F 57.2 °F 29.6 in WSW 5.6 mph 7.8 mph 63 % 0 in
12:35 70.7 °F 57.2 °F 29.6 in SSW 1.1 mph 6.5 mph 63 % 0 in
12:40 70.9 °F 57.2 °F 29.6 in WSW 4.9 mph 6.5 mph 63 % 0 in
12:45 70.9 °F 57.2 °F 29.6 in Calm   5.8 mph 62 % 0 in
12:50 70.7 °F 57.2 °F 29.6 in SW 3.1 mph 6.5 mph 62 % 0 in
12:55 70.7 °F 57.2 °F 29.6 in Calm   6.5 mph 62 % 0 in
13:00 71.1 °F 57.2 °F 29.6 in South 3.8 mph 6.3 mph 60 % 0 in
13:05 71.2 °F 57.2 °F 29.6 in SSW 2 mph 7.2 mph 60 % 0 in
13:10 71.4 °F 55.4 °F 29.6 in SW 5.6 mph 7.2 mph 57 % 0 in
13:15 71.8 °F 55.4 °F 29.6 in SSW 3.4 mph 6 mph 57 % 0 in
13:20 74.3 °F 57.2 °F 29.6 in WSW 4 mph 7.8 mph 56 % 0 in
13:25 73.8 °F 55.4 °F 29.6 in SW 7.4 mph 7.8 mph 51 % 0 in
13:30 73 °F 55.4 °F 29.6 in SSW 5.4 mph 7.4 mph 52 % 0 in
13:35 72.3 °F 53.6 °F 29.6 in WSW 6.5 mph 8.1 mph 50 % 0 in
13:40 72.3 °F 53.6 °F 29.6 in SSW 4 mph 8.1 mph 52 % 0 in
13:45 72.1 °F 53.6 °F 29.6 in WSW 4.9 mph 7.6 mph 51 % 0 in
13:50 72.1 °F 53.6 °F 29.6 in West 0.9 mph 7.6 mph 52 % 0 in
13:55 72.1 °F 53.6 °F 29.6 in West 1.1 mph 7.4 mph 51 % 0 in
14:00 72.5 °F 53.6 °F 29.6 in SSW 2.9 mph 6.5 mph 51 % 0 in
14:05 72.5 °F 55.4 °F 29.6 in West 6 mph 10.3 mph 54 % 0 in
14:10 72.3 °F 55.4 °F 29.6 in NW 3.4 mph 10.3 mph 55 % 0 in
14:15 72.3 °F 55.4 °F 29.6 in West 2.5 mph 6.3 mph 55 % 0 in
14:20 72.5 °F 55.4 °F 29.6 in NW 1.6 mph 6 mph 54 % 0 in
14:25 72.5 °F 55.4 °F 29.6 in West 3.8 mph 5.8 mph 54 % 0 in
14:30 72.7 °F 55.4 °F 29.6 in NNW 4.3 mph 5.8 mph 54 % 0 in
14:35 73 °F 55.4 °F 29.6 in NW 5.6 mph 5.6 mph 56 % 0 in
14:40 72.9 °F 55.4 °F 29.6 in NNW 1.6 mph 5.6 mph 55 % 0 in
14:45 72.5 °F 55.4 °F 29.6 in North 2.5 mph 5.8 mph 55 % 0 in
14:50 72.1 °F 55.4 °F 29.6 in Calm   5.8 mph 55 % 0 in
14:55 72 °F 55.4 °F 29.6 in NNW 1.3 mph 5.4 mph 54 % 0 in
15:00 72 °F 55.4 °F 29.6 in NE 2.9 mph 5.4 mph 53 % 0 in
15:05 71.8 °F 55.4 °F 29.6 in Calm   5.6 mph 54 % 0 in
15:11 71.8 °F 55.4 °F 29.6 in Calm   5.6 mph 54 % 0 in
15:16 71.6 °F 55.4 °F 29.6 in East 3.8 mph 5.8 mph 54 % 0 in
15:21 71.4 °F 55.4 °F 29.6 in Calm   5.8 mph 55 % 0 in
15:26 71.2 °F 53.6 °F 29.6 in East 2.7 mph 4 mph 55 % 0 in
15:31 71.1 °F 53.6 °F 29.6 in Calm   3.6 mph 55 % 0 in
15:36 71.1 °F 53.6 °F 29.6 in Calm   4 mph 55 % 0 in
15:41 70.9 °F 55.4 °F 29.6 in Calm   4 mph 56 % 0 in
15:46 70.9 °F 55.4 °F 29.6 in Calm   3.1 mph 56 % 0 in
15:51 70.9 °F 53.6 °F 29.6 in NE 4.7 mph 4.7 mph 55 % 0 in
15:56 70.7 °F 55.4 °F 29.6 in NNW 3.6 mph 5.4 mph 56 % 0 in
16:01 70.7 °F 55.4 °F 29.6 in Calm   5.8 mph 56 % 0 in
16:06 70.9 °F 55.4 °F 29.6 in Calm   5.8 mph 57 % 0 in
16:11 70.9 °F 55.4 °F 29.6 in Calm   2.9 mph 58 % 0 in
16:16 70.9 °F 55.4 °F 29.6 in NNW 3.6 mph 4.7 mph 58 % 0 in
16:21 70.9 °F 55.4 °F 29.6 in North 3.6 mph 4.7 mph 59 % 0 in
16:27 71.1 °F 55.4 °F 29.6 in NW 4.3 mph 4.3 mph 58 % 0 in
16:32 71.1 °F 55.4 °F 29.6 in Calm   4.3 mph 58 % 0 in
16:37 71.2 °F 55.4 °F 29.6 in Calm   5.6 mph 58 % 0 in
16:42 71.4 °F 55.4 °F 29.6 in WNW 2.7 mph 5.6 mph 58 % 0 in
16:47 71.2 °F 55.4 °F 29.6 in North 3.1 mph 4.9 mph 57 % 0 in
16:52 71.2 °F 55.4 °F 29.6 in NNW 2 mph 3.8 mph 57 % 0 in
16:57 71.1 °F 55.4 °F 29.6 in Calm   3.1 mph 57 % 0 in
17:02 70 °F 55.4 °F 29.7 in Calm   6.5 mph 62 % 0 in
17:07 69.3 °F 55.4 °F 29.7 in NNW 7.2 mph 9.8 mph 63 % 0 in
17:12 69.1 °F 55.4 °F 29.7 in North 4 mph 9.8 mph 63 % 0 in
17:17 68.7 °F 57.2 °F 29.7 in North 5.4 mph 8.5 mph 65 % 0 in
17:22 68 °F 57.2 °F 29.7 in NW 4.3 mph 8.5 mph 67 % 0 in
17:27 68 °F 57.2 °F 29.7 in Calm   8.1 mph 68 % 0 in
17:32 67.8 °F 57.2 °F 29.7 in North 1.3 mph 6.5 mph 70 % 0 in
17:37 67.6 °F 57.2 °F 29.7 in North 1.3 mph 6.3 mph 71 % 0 in
17:42 67.3 °F 57.2 °F 29.7 in NW 6.5 mph 6.5 mph 70 % 0 in
17:47 67.3 °F 57.2 °F 29.7 in NNW 2.5 mph 6.5 mph 70 % 0 in
17:52 67.1 °F 57.2 °F 29.7 in North 1.3 mph 6.5 mph 69 % 0 in
17:57 67.1 °F 57.2 °F 29.7 in Calm   5.6 mph 69 % 0 in
18:02 67.1 °F 57.2 °F 29.7 in NNE 4.3 mph 5.6 mph 69 % 0 in
18:08 67.1 °F 57.2 °F 29.7 in North 5.4 mph 5.6 mph 69 % 0 in
18:13 67.3 °F 57.2 °F 29.7 in North 5.6 mph 5.6 mph 69 % 0 in
18:18 67.3 °F 57.2 °F 29.7 in NNW 3.6 mph 5.6 mph 69 % 0 in
18:23 67.5 °F 57.2 °F 29.7 in NNW 3.8 mph 5.6 mph 69 % 0 in
18:28 67.6 °F 57.2 °F 29.7 in North 2.9 mph 5.8 mph 69 % 0 in
18:33 67.8 °F 57.2 °F 29.7 in NNW 4.3 mph 5.8 mph 69 % 0 in
18:38 68 °F 57.2 °F 29.7 in NNW 5.6 mph 7.8 mph 69 % 0 in
18:43 68.2 °F 57.2 °F 29.7 in North 4.9 mph 7.8 mph 69 % 0 in
18:48 68.4 °F 57.2 °F 29.7 in North 1.6 mph 6.3 mph 69 % 0 in
18:53 68.5 °F 57.2 °F 29.7 in NNW 3.6 mph 6.3 mph 69 % 0 in
18:58 68.5 °F 59 °F 29.7 in Calm   6.3 mph 70 % 0 in
19:03 68.5 °F 57.2 °F 29.7 in NE 3.4 mph 5.4 mph 69 % 0 in
19:08 68.5 °F 59 °F 29.7 in NNW 3.6 mph 5.8 mph 70 % 0 in
19:13 68.5 °F 57.2 °F 29.7 in NNW 4.5 mph 5.8 mph 69 % 0 in
19:18 68.5 °F 57.2 °F 29.7 in North 5.8 mph 6 mph 67 % 0 in
19:23 68.5 °F 57.2 °F 29.7 in ENE 3.8 mph 7.4 mph 67 % 0 in
19:28 68.5 °F 57.2 °F 29.7 in NE 3.1 mph 7.4 mph 66 % 0 in
19:33 68.5 °F 55.4 °F 29.7 in NE 5.6 mph 6.5 mph 64 % 0 in
19:38 68.5 °F 55.4 °F 29.7 in North 4.9 mph 8.7 mph 64 % 0 in
19:43 68.5 °F 55.4 °F 29.7 in NNW 1.1 mph 8.7 mph 64 % 0 in
19:48 68.5 °F 55.4 °F 29.7 in North 7.6 mph 8.1 mph 63 % 0 in
19:54 68.5 °F 55.4 °F 29.7 in North 6 mph 8.1 mph 63 % 0 in
19:59 68.5 °F 55.4 °F 29.7 in North 3.1 mph 8.1 mph 63 % 0 in
20:04 68.5 °F 55.4 °F 29.7 in North 3.4 mph 6.3 mph 62 % 0 in
20:09 68.5 °F 55.4 °F 29.7 in WNW 4 mph 6 mph 61 % 0 in
20:14 68.5 °F 55.4 °F 29.7 in North 5.6 mph 6 mph 62 % 0 in
20:19 68.4 °F 55.4 °F 29.7 in Calm   5.8 mph 62 % 0 in
20:22 68.2 °F 55.4 °F 29.7 in North 2.5 mph 5.8 mph 62 % 0 in
20:27 68 °F 55.4 °F 29.7 in North 1.6 mph 7.6 mph 62 % 0 in
20:32 67.8 °F 55.4 °F 29.7 in North 2.9 mph 7.6 mph 63 % 0 in
20:37 67.8 °F 55.4 °F 29.7 in Calm   5.4 mph 62 % 0 in
20:42 67.6 °F 55.4 °F 29.7 in NNW 4 mph 5.4 mph 63 % 0 in
20:47 67.3 °F 55.4 °F 29.7 in North 2.7 mph 6 mph 63 % 0 in
20:52 67.1 °F 55.4 °F 29.7 in Calm   6 mph 64 % 0 in
20:57 66.7 °F 55.4 °F 29.7 in NW 1.3 mph 3.1 mph 65 % 0 in
21:00 66.7 °F 55.4 °F 29.7 in NNW 2.2 mph 4.7 mph 65 % 0 in
21:05 66.4 °F 55.4 °F 29.7 in NW 3.6 mph 4.7 mph 66 % 0 in
21:10 66.2 °F 55.4 °F 29.7 in NNW 3.4 mph 4.9 mph 66 % 0 in
21:15 65.8 °F 55.4 °F 29.7 in NNW 2.5 mph 5.4 mph 67 % 0 in
21:20 65.7 °F 55.4 °F 29.7 in Calm   5.4 mph 67 % 0 in
21:25 65.5 °F 55.4 °F 29.7 in WNW 1.1 mph 4.9 mph 67 % 0 in
21:30 65.3 °F 55.4 °F 29.7 in Calm   4.7 mph 67 % 0 in
21:35 65.1 °F 53.6 °F 29.7 in West 1.6 mph 4.7 mph 67 % 0 in
21:40 64.8 °F 55.4 °F 29.7 in Calm   2.5 mph 68 % 0 in
21:45 64.6 °F 53.6 °F 29.7 in Calm   1.6 mph 69 % 0 in
21:50 64.4 °F 53.6 °F 29.7 in Calm     69 % 0 in
21:55 64 °F 53.6 °F 29.7 in Calm     70 % 0 in
22:00 63.9 °F 55.4 °F 29.7 in Calm     71 % 0 in
22:05 63.5 °F 55.4 °F 29.7 in Calm     71 % 0 in
22:10 63.1 °F 53.6 °F 29.7 in Calm     71 % 0 in
22:16 63 °F 55.4 °F 29.7 in Calm     72 % 0 in
22:21 62.6 °F 53.6 °F 29.7 in Calm     72 % 0 in
22:26 62.2 °F 53.6 °F 29.7 in Calm     73 % 0 in
22:31 61.9 °F 53.6 °F 29.7 in Calm     74 % 0 in
22:36 61.7 °F 53.6 °F 29.7 in Calm     74 % 0 in
22:41 61.7 °F 55.4 °F 29.7 in Calm   2.2 mph 75 % 0 in
22:46 61.3 °F 53.6 °F 29.7 in Calm   2.2 mph 75 % 0 in
22:51 60.8 °F 53.6 °F 29.7 in Calm     76 % 0 in
22:56 60.6 °F 53.6 °F 29.7 in Calm   2.2 mph 77 % 0 in
22:59 60.4 °F 53.6 °F 29.7 in Calm   2.2 mph 77 % 0 in
23:04 60.1 °F 53.6 °F 29.7 in Calm     78 % 0 in
23:09 59.9 °F 53.6 °F 29.7 in Calm   1.3 mph 79 % 0 in
23:14 59.9 °F 55.4 °F 29.7 in Calm   1.3 mph 80 % 0 in
23:19 59.7 °F 53.6 °F 29.8 in Calm     80 % 0 in
23:24 59.5 °F 53.6 °F 29.8 in Calm     80 % 0 in
23:29 59.2 °F 53.6 °F 29.8 in Calm     81 % 0 in
23:35 59 °F 53.6 °F 29.7 in Calm     81 % 0 in
23:40 59 °F 53.6 °F 29.7 in WSW 0.9 mph 1.6 mph 82 % 0 in
23:45 58.8 °F 53.6 °F 29.7 in Calm   1.6 mph 82 % 0 in
23:50 58.5 °F 53.6 °F 29.7 in Calm   1.1 mph 83 % 0 in
23:55 58.5 °F 53.6 °F 29.7 in Calm   1.1 mph 83 % 0 in
Le Gheer Warneton
Courtoisie de Weather Underground - 2.25 mb

Mise a jour : 16-12-17 12:15:12
Généré par Cumulus 1.9.4 (1099)